Location: Pedholt
(56.0260°N, 10.2097°E)
Time: 21:20:43
(UTC+00:00)

Tiros 1 - Pass Details

Date: 02 August 2021
Orbit: 630 x 663 km, 48.4° (Epoch: 19 September)

Event Time Altitude Azimuth Distance (km) Brightness Sun altitude
Rises 18:30:18 0° 237° (WSW) 2,980 11.1 5.8°
Reaches altitude 10° 18:32:53 10° 227° (SW) 2,065 10.1 5.5°
Maximum altitude 18:36:59 29° 167° (SSE) 1,188 8.3 5.0°
Drops below altitude 10° 18:41:03 10° 108° (ESE) 2,050 9.1 4.4°
Sets 18:43:36 0° 97° (E) 2,955 9.9 4.1°
